This demonstration page uses our WeatherBlox Daily Observations layout. Learn more.

Left ArrowRight Arrow

36.17497, -115.13722

Hourly Observations for December 13, 2019

Temp ( °F °C ) Dew Point ( °F °C ) Humidity (%) Winds ( mph kmh ) Pressure ( in mb ) Visibility ( mi km ) Precip ( " mm )
12:53 am 00:53 Clear 43 6.1 35 1.7 74 74 NW 3 6 30.26 1025 10 16 0.00 0.00
1:53 am 01:53 Clear 43 6.1 35 1.7 74 74 NW 6 9 30.27 1025 10 16 0.00 0.00
2:53 am 02:53 Clear 43 6.1 35 1.7 74 74 NW 3 6 30.28 1026 10 16 0.00 0.00
3:53 am 03:53 Clear 43 6.1 35 1.7 74 74 WSW 3 6 30.25 1024 10 16 0.00 0.00
4:53 am 04:53 Clear 42 5.6 35 1.7 76 76 Calm 30.26 1025 10 16 0.00 0.00
5:53 am 05:53 Clear 42 5.6 34 1.1 73 73 WNW 7 11 30.26 1025 10 16 0.00 0.00
6:53 am 06:53 Sunny 42 5.6 35 1.7 76 76 NW 3 6 30.26 1025 10 16 0.00 0.00
7:53 am 07:53 Sunny 45 7.2 36 2.2 71 71 NW 3 6 30.27 1025 10 16 0.00 0.00
8:53 am 08:53 Sunny 50 10 37 2.8 61 61 Calm 30.25 1024 10 16 0.00 0.00
9:53 am 09:53 Sunny 52 11.1 38 3.3 59 59 Calm 30.24 1024 10 16 0.00 0.00
10:53 am 10:53 Sunny 55 12.8 37 2.8 51 51 SE 8 13 30.18 1022 10 16 0.00 0.00
11:53 am 11:53 Sunny 57 13.9 36 2.2 45 45 E 5 7 30.15 1021 10 16 0.00 0.00
12:53 pm 12:53 Sunny 58 14.4 35 1.7 42 42 SE 5 7 30.10 1019 10 16 0.00 0.00
1:53 pm 13:53 Sunny 59 15 37 2.8 44 44 ESE 6 9 30.06 1018 10 16 0.00 0.00
2:53 pm 14:53 Sunny 60 15.6 37 2.8 42 42 E 3 6 30.04 1017 10 16 0.00 0.00
3:53 pm 15:53 Sunny 59 15 37 2.8 44 44 NE 6 9 30.02 1017 10 16 0.00 0.00
4:53 pm 16:53 Clear 56 13.3 38 3.3 51 51 ENE 5 7 30.01 1016 10 16 0.00 0.00
5:53 pm 17:53 Clear 54 12.2 38 3.3 55 55 NW 3 6 30.01 1016 10 16 0.00 0.00
6:53 pm 18:53 Clear 53 11.7 39 3.9 59 59 N 5 7 30.00 1016 10 16 0.00 0.00
7:53 pm 19:53 Clear 51 10.6 39 3.9 64 64 N 5 7 30.00 1016 10 16 0.00 0.00
8:53 pm 20:53 Clear 50 10 38 3.3 63 63 NW 6 9 30.00 1016 10 16 0.00 0.00
9:53 pm 21:53 Clear 50 10 38 3.3 63 63 NW 6 9 30.00 1016 10 16 0.00 0.00
10:53 pm 22:53 Clear 48 8.9 38 3.3 68 68 NNW 8 13 29.99 1016 10 16 0.00 0.00
11:53 pm 23:53 Clear 47 8.3 38 3.3 71 71 NW 6 9 29.96 1015 10 16 0.00 0.00

Powered by AerisWeather